Regional Weather Roundup
Issued by NWS

Home | Current Version | Previous Version | Graphics & Text | Print | Product List | Glossary On
Versions: 1 2 3 4 5 6 7 8 9 10 11 12 13 14 15 16 17 18 19 20 21 22 23 24 25 26 27 28 29 30 31 32 33 34 35 36 37 38 39 40 41 42 43 44 45 46 47 48 49 50
000
ASUS43 KMPX 211901
RWRMN
WEATHER ROUNDUP FOR MINNESOTA
NATIONAL WEATHER SERVICE TWIN CITIES/CHANHASSEN MN
200 PM CDT THU SEP 21 2017


NOTE: "FAIR" INDICATES FEW OR NO CLOUDS BELOW 12,000 FEET WITH NO
SIGNIFICANT WEATHER AND/OR OBSTRUCTIONS TO VISIBILITY. N/A MEANS
CURRENT SKY AND/OR WEATHER CONDITIONS ARE NOT AVAILABLE.

MNZ060>063-068>070-212000-
   Twin Cities Metro

CITY           SKY/WX    TMP DP  RH WIND       PRES   REMARKS
TWIN CITIES    MOSUNNY   79  66  64 SE12      29.88F
ST PAUL        SUNNY     77  65  66 SE13      29.89F
CRYSTAL        SUNNY     78  61  55 SE12      29.86F
BLAINE         SUNNY     81  63  54 SE15G22   29.87F
LAKEVILLE      PTSUNNY   75  66  73 SE12      29.88F
EDEN PRAIRIE   MOSUNNY   79  67  66 SE13G26   29.86F
SOUTH ST PAUL  SUNNY     78  63  59 SE6       29.88F
LAKE ELMO      FAIR      79  64  61 SE12      29.90F
$$
MNZ001>005-007-008-013>017-022>024-027-028-212000-
   Northwest Minnesota

CITY           SKY/WX    TMP DP  RH WIND       PRES   REMARKS
BEMIDJI        SUNNY     71  48  44 SE18      29.85F
HALLOCK        CLOUDY    75  45  33 S18G28    29.75F
ROSEAU         SUNNY     77  46  33 S17       29.80F
WARROAD        SUNNY     75  48  38 SE14G20   29.82F
CROOKSTON      SUNNY     75  45  33 S13G21    29.76F
FOSSTON        SUNNY     75  46  35 SE13G18   29.80F
DETROIT LAKES  SUNNY     73  46  38 SE20G29   29.82F
MOORHEAD       SUNNY     79  45  29 S18G24    29.77F
PARK RAPIDS    SUNNY     74  49  41 SE23      29.85F
MAHNOMEN       FAIR      74  45  35 SE18      29.79F
$$
MNZ006-009>011-018-025>026-212000-
   North Central Minnesota

CITY           SKY/WX    TMP DP  RH WIND       PRES   REMARKS
BAUDETTE       SUNNY     74  43  32 SE16G28   29.85F
FLAG ISLAND    SUNNY     66  50  55 S14       29.82F
INTL FALLS     SUNNY     71  49  45 SE10G17   29.90F
WASKISH        PTSUNNY   73  48  40 SE16      29.85F
BIG FORK       SUNNY     72  48  43 SE12G17   29.91F
LONGVILLE      SUNNY     72  48  43 SE6G21    29.89F
GRAND RAPIDS   SUNNY     71  48  43 SE12G17   29.93F
CRANE LAKE     SUNNY     70  46  43 CALM      29.95F
ORR            SUNNY     72  45  37 SE8       29.91F
COOK           SUNNY     72  46  40 SE7       29.94F
WALKER         FAIR      69  49  48 SE10      29.87F
$$
MNZ012-019>021-037-212000-
   Northeast Minnesota

CITY           SKY/WX    TMP DP  RH WIND       PRES   REMARKS
DULUTH         SUNNY     68  55  63 E13       29.95F
ELY            SUNNY     70  48  46 SE13G18   29.97F
HIBBING        SUNNY     69  48  47 SE16G22   29.94F
EVELETH        SUNNY     72  34  24 SE10G18   29.96F
DULUTH HARBOR  SUNNY     63  59  88 NE18      29.95F
GRAND MARAIS     N/A     62  57  83 E10       30.02F
$$
MNZ029>031-032-039>041-046>048-054>057-064-212000-
   West Central Minnesota

CITY           SKY/WX    TMP DP  RH WIND       PRES   REMARKS
FERGUS FALLS   SUNNY     77  45  31 SE18      29.77F
WHEATON        SUNNY     79  50  36 SE14G20   29.76F
ALEXANDRIA     SUNNY     76  51  41 SE15G25   29.82F
ELBOW LAKE     FAIR      75  49  40 E15G23    29.78F
WADENA         SUNNY     73  50  43 SE16      29.83F
GLENWOOD       SUNNY     77  57  50 SE16      29.82F
APPLETON       SUNNY     79  61  53 SE17G25   29.75F
BENSON         SUNNY     79  61  53 S20G26    29.79F
ORTONVILLE     SUNNY     79  61  53 NE17G24   29.74F
MADISON        SUNNY     82  64  54 SE17G28   29.75F
WILLMAR        FAIR      79  64  61 SE16      29.82F
$$
MNZ033>034-036-042>043-049>051-058-059-212000-
   Central Minnesota

CITY           SKY/WX    TMP DP  RH WIND       PRES   REMARKS
ST CLOUD       SUNNY     77  59  53 SE14      29.85F
SAUK CENTRE    FAIR      74  57  54 SE10G18   29.84F
PAYNESVILLE    SUNNY     77  60  56 SE10      29.84F
AITKIN         SUNNY     73  50  43 SE8       29.89F
PINE RIVER     SUNNY     68  52  56 SE15      29.92F
BRAINERD       SUNNY     72  49  44 SE9       29.88F
LITTLE FALLS   SUNNY     75  43  31 SE12      29.86F
LITCHFIELD     SUNNY     79  64  61 SE15      29.84F
BUFFALO        SUNNY     77  61  56 SE12G18   29.87F
MAPLE LAKE     SUNNY     77  64  62 SE10      29.86F
HUTCHINSON     MOSUNNY   79  68  70 SE12G18   29.84F
$$
MNZ037-044-045-052-053-212000-
   East Central Minnesota

CITY           SKY/WX    TMP DP  RH WIND       PRES   REMARKS
PRINCETON      SUNNY     79  61  53 SE8G17    29.87F
MORA           SUNNY     75  54  46 SE10      29.90F
RUSH CITY      SUNNY     78  57  48 SE7       29.89F
MOOSE LAKE     SUNNY     73  48  40 E5        29.89F
HINCKLEY       FAIR      77  54  44 SE10      29.90F
CLOQUET        SUNNY     68  54  60 E10       29.94F
MCGREGOR       SUNNY     73  50  43 E8        29.91F
$$
MNZ071>073-080-081-089-090-097-098-212000-
   Southwest Minnesota

CITY           SKY/WX    TMP DP  RH WIND       PRES   REMARKS
MONTEVIDEO     SUNNY     81  63  54 S17       29.76F
GRANITE FALLS  SUNNY     81  66  61 SE15      29.78F
CANBY          SUNNY     82  67  59 E17G23    29.75F
MARSHALL       SUNNY     82  68  62 SE21G26   29.75F
REDWOOD FALLS  SUNNY     81  66  60 SE20G29   29.79F
OLIVIA         SUNNY     79  64  61 SE14      29.79F
PIPESTONE      SUNNY     82  68  61 S16G26    29.76F
WORTHINGTON    MOSUNNY   81  69  67 SE20G26   29.80F
JACKSON        SUNNY     79  68  69 SE17G26   29.83F
TRACY          SUNNY     82  68  64 S17G29    29.77F
SLAYTON        SUNNY     80  66  62 SE17G24   29.80F
$$
MNZ065>067-074>077-082>085-091>093-212000-
   South Central Minnesota

CITY           SKY/WX    TMP DP  RH WIND       PRES   REMARKS
MANKATO        SUNNY     80  68  66 SE16G22   29.85F
NEW ULM        SUNNY     79  66  65 S13       29.82F
ST JAMES       SUNNY     81  66  61 SE17G24   29.83F
FAIRMONT       MOSUNNY   81  70  69 S20G25    29.83F
GLENCOE        SUNNY     80  70  71 E16       29.83F
FARIBAULT      SUNNY     79  68  69 SE8       29.89F
OWATONNA       SUNNY     81  68  65 SE14      29.89F
WASECA         SUNNY     77  66  69 S10       29.89F
ALBERT LEA     MOSUNNY   82  70  65 S7G22     29.89F
$$
MNZ078>079-086>088-094>096-212000-
   Southeast Minnesota

CITY           SKY/WX    TMP DP  RH WIND       PRES   REMARKS
ROCHESTER      SUNNY     82  67  60 S14G23    29.91F
RED WING       SUNNY     79  63  57 SE12G20   29.89F
STANTON        MOSUNNY   79  66  65 E7        29.88F
DODGE CENTER   SUNNY     81  64  57 SE10G17   29.90F
WINONA         SUNNY     81  64  57 E8        29.92F
AUSTIN         SUNNY     81  66  61 S16       29.89F
PRESTON        SUNNY     82  64  54 S14G21    29.93F
$$
ABBREVIATIONS USED IN REMARKS
   TC - TEMPERATURES IN CELSIUS
  WCI - WIND CHILL INDEX
   HX - HEAT INDEX
  VSB - VISIBILITY
$$



USA.gov is the U.S. government's official web portal to all federal, state and local government web resources and services.